Location: Proctor
(47.8934°N, 114.3048°W)
Time: 17:05:49
(UTC+00:00)

Transit 4A - Pass Details

Date: 12 May 2025
Orbit: 866 x 975 km, 66.8° (Epoch: 13 June)

Event Time Altitude Azimuth Distance (km) Brightness Sun altitude
Rises 06:52:06 0° 279° (W) 3,660 11.3 -23.2°
Reaches altitude 10° 06:55:42 10° 298° (WNW) 2,702 10.8 -23.3°
Maximum altitude 06:59:44 17° 339° (NNW) 2,200 10.7 -23.4°
Drops below altitude 10° 07:03:43 10° 19° (NNE) 2,664 11.1 -23.5°
Sets 07:07:14 0° 39° (NE) 3,587 11.6 -23.6°
